EW1514 Weather Reports


time (UTC)temp
C
wind
direction
speed
KPH
gust
KPH
rain 1hr
cm
rain 24hr
cm
rain mn
cm
humidity
%
barometer
mb
20260508013012 15 63 0.0 0.0 0.00 0.03 0.00 79 1015.5
20260508011510 15 63 0.0 0.0 0.00 0.03 0.00 78 1015.8
20260508010011 15 63 0.0 0.0 0.00 0.03 0.00 78 1016.1
20260508004507 15 63 0.0 0.0 0.00 0.03 0.00 78 1016.1
20260508003006 15 63 0.0 0.0 0.00 0.03 0.00 77 1016.2
20260508001504 15 63 0.0 0.0 0.00 0.03 0.00 77 1016.4
20260508000003 15 63 0.0 0.0 0.00 0.03 0.00 77 1016.4
20260507234503 15 63 0.0 0.0 0.00 0.03 0.00 77 1016.4
20260507233100 16 63 0.0 3.2 0.00 0.03 0.00 77 1016.5
20260507231600 16 63 0.0 0.0 0.00 0.03 0.00 77 1016.7
20260507230158 16 63 0.0 3.2 0.00 0.03 0.00 77 1016.8
20260507224559 16 63 0.0 0.0 0.00 0.03 0.00 78 1017.0
20260507223054 16 63 0.0 0.0 0.00 0.03 0.00 77 1017.2
20260507221552 16 63 0.0 0.0 0.00 0.03 0.00 77 1017.2
20260507220051 16 63 0.0 0.0 0.00 0.03 0.00 77 1017.1
20260507214602 16 63 0.0 0.0 0.00 0.03 0.00 76 1017.1
20260507213049 16 63 0.0 0.0 0.00 0.03 0.00 76 1017.1
20260507211550 16 63 0.0 0.0 0.00 0.03 0.00 75 1017.2
20260507210045 17 63 0.0 0.0 0.00 0.03 0.00 74 1017.0
20260507204545 17 63 0.0 0.0 0.00 0.03 0.03 74 1017.0
20260507203101 17 63 0.0 0.0 0.00 0.03 0.03 73 1017.0
20260507201554 17 63 0.0 3.2 0.00 0.03 0.03 73 1017.0
20260507200059 17 32 0.0 0.0 0.00 0.03 0.03 72 1017.0
20260507194542 17 32 0.0 4.8 0.00 0.03 0.03 71 1017.1
20260507193046 18 32 0.0 3.2 0.00 0.03 0.03 71 1017.0
20260507191540 18 78 0.0 1.6 0.00 0.03 0.03 70 1017.0
20260507190040 18 116 0.0 0.0 0.00 0.03 0.03 70 1017.1
20260507184546 18 116 0.0 0.0 0.00 0.03 0.03 70 1016.8
20260507183038 18 82 0.0 3.2 0.00 0.03 0.03 69 1016.7
20260507181538 18 75 0.0 4.8 0.00 0.03 0.03 68 1016.7
20260507180040 19 13 0.0 1.6 0.00 0.03 0.03 67 1016.5
20260507174539 19 343 0.0 1.6 0.00 0.03 0.03 65 1016.8
20260507173037 19 78 0.0 3.2 0.00 0.03 0.03 65 1016.2
20260507171536 19 117 0.0 6.4 0.00 0.03 0.03 63 1016.1
20260507170037 20 150 3.2 6.4 0.00 0.03 0.03 63 1016.5
20260507164542 20 192 0.0 4.8 0.00 0.03 0.03 61 1016.7
20260507163034 20 202 0.0 8.0 0.00 0.03 0.03 61 1016.7
20260507161534 20 192 4.8 9.7 0.00 0.03 0.03 60 1016.8
20260507160033 21 186 3.2 6.4 0.00 0.03 0.03 60 1016.7
20260507154537 21 167 1.6 4.8 0.00 0.03 0.03 58 1016.6
20260507153033 21 289 1.6 6.4 0.00 0.03 0.03 57 1016.9
20260507151531 21 265 1.6 9.7 0.00 0.03 0.03 54 1016.9
20260507150030 21 282 1.6 8.0 0.00 0.03 0.03 52 1016.8
20260507144533 22 205 3.2 8.0 0.00 0.03 0.03 52 1016.9
20260507143031 21 286 3.2 6.4 0.00 0.03 0.03 53 1016.8
20260507141523 21 309 1.6 9.7 0.00 0.03 0.03 54 1016.8
20260507140022 21 348 3.2 12.9 0.00 0.03 0.03 55 1016.7
20260507134521 20 74 1.6 9.7 0.00 0.03 0.03 57 1016.7
20260507133017 20 22 1.6 12.9 0.00 0.03 0.03 58 1016.7
20260507131516 20 63 1.6 6.4 0.00 0.03 0.03 58 1017.0
20260507130014 19 52 0.0 6.4 0.00 0.03 0.03 61 1017.0
20260507124517 19 54 6.4 17.7 0.00 0.03 0.03 62 1016.8
20260507123015 19 42 6.4 11.3 0.00 0.03 0.03 67 1017.4
20260507121622 18 23 0.0 16.1 0.00 0.03 0.03 69 1017.7
20260507120011 18 74 4.8 17.7 0.03 0.03 0.03 70 1018.0
20260507114511 19 88 3.2 8.0 0.03 0.03 0.03 72 1018.3
20260507113014 19 331 0.0 1.6 0.03 0.03 0.03 69 1018.6
20260507111509 19 331 0.0 1.6 0.03 0.03 0.03 67 1018.7
20260507110007 20 331 0.0 3.2 0.00 0.00 0.00 66 1018.6
20260507104507 20 331 1.6 4.8 0.00 0.00 0.00 64 1018.4
20260507103008 20 320 1.6 9.7 0.00 0.00 0.00 63 1018.6
20260507101512 20 298 4.8 8.0 0.00 0.00 0.00 61 1018.5
20260507100006 20 309 4.8 6.4 0.00 0.00 0.00 61 1018.4
20260507094502 20 294 0.0 6.4 0.00 0.00 0.00 63 1018.3
20260507093059 20 259 3.2 6.4 0.00 0.00 0.00 61 1018.1
20260507091557 20 248 0.0 1.6 0.00 0.00 0.00 62 1017.7
20260507090100 20 248 0.0 4.8 0.00 0.00 0.00 64 1017.5
20260507084600 20 284 1.6 6.4 0.00 0.00 0.00 65 1017.5
20260507083051 20 190 0.0 8.0 0.00 0.00 0.00 65 1017.3
20260507081551 20 206 3.2 8.0 0.00 0.00 0.00 63 1017.1
20260507080104 20 234 4.8 8.0 0.00 0.00 0.00 59 1017.0
20260507074545 20 250 0.0 4.8 0.00 0.00 0.00 59 1016.7
20260507073050 20 115 0.0 1.6 0.00 0.00 0.00 62 1016.4
20260507071542 20 278 0.0 4.8 0.00 0.00 0.00 65 1016.6
20260507070041 20 203 1.6 6.4 0.00 0.00 0.00 66 1016.6
20260507064535 19 192 3.2 9.7 0.00 0.00 0.00 66 1016.7
20260507063034 20 229 3.2 9.7 0.00 0.00 0.00 64 1016.7
20260507061532 19 213 3.2 8.0 0.00 0.00 0.00 61 1016.7
20260507060027 19 220 1.6 6.4 0.00 0.00 0.00 63 1016.5
20260507054530 18 338 0.0 3.2 0.00 0.00 0.00 68 1016.2
20260507053019 17 339 0.0 0.0 0.00 0.00 0.00 71 1016.3
20260507051516 16 339 0.0 0.0 0.00 0.00 0.00 72 1016.1
20260507050012 16 339 0.0 3.2 0.00 0.00 0.00 74 1016.1
20260507044508 15 339 0.0 0.0 0.00 0.00 0.00 77 1016.2
20260507043009 14 339 0.0 1.6 0.00 0.00 0.00 78 1016.2
20260507041601 13 338 0.0 0.0 0.00 0.00 0.00 78 1016.1
20260507034558 13 43 0.0 1.6 0.00 0.00 0.00 77 1015.8
20260507033059 13 43 0.0 0.0 0.00 0.00 0.00 76 1015.6
20260507031552 13 43 0.0 0.0 0.00 0.00 0.00 76 1015.6
20260507030051 13 43 0.0 0.0 0.00 0.00 0.00 76 1015.6
20260507024603 13 43 0.0 0.0 0.00 0.00 0.00 77 1015.4
20260507023051 13 43 0.0 3.2 0.00 0.00 0.00 78 1015.3
20260507021548 13 65 0.0 4.8 0.00 0.00 0.00 79 1015.1
20260507020106 13 309 0.0 0.0 0.00 0.00 0.00 80 1015.3
20260507014552 13 309 0.0 0.0 0.00 0.00 0.00 80 1015.1